Simultaneous Nadir Overpasses (SNOs) Predictions

Prediction of SNOs between GOES-16 and NOAA-20 Satellite Orbit:

Table of predicted SNOs for the next 14.0 days since TLE Epoch: 1/20/2024
Index Date Time (GOES-16) GOES-16 Lat,Lon NOAA-20 Lat,Lon Distance(km) Time Diff (sec)
1 01/20/2024 18:39:18 0.05, -75.21 -0.74, -78.73 401.62 80
2 01/21/2024 18:23:14 0.04, -75.21 0.29, -74.21 114.97 80
3 01/23/2024 06:45:03 -0.04, -75.22 0.93, -79.47 485.29 80
4 01/24/2024 06:23:39 -0.03, -75.22 -0.11, -74.95 31.46 80
5 01/26/2024 18:26:52 0.03, -75.24 -0.10, -75.72 55.11 80
6 01/27/2024 18:10:49 0.03, -75.25 0.94, -71.20 462.50 80
7 01/29/2024 06:32:38 -0.03, -75.28 0.21, -76.48 135.73 80
8 01/30/2024 06:11:13 -0.03, -75.29 -0.78, -71.94 382.17 80
9 01/31/2024 18:33:11 0.03, -75.32 -0.39, -77.25 219.92 80
10 02/01/2024 18:17:06 0.03, -75.34 0.60, -72.71 298.45 80
